Weather in Koptyazhevo

Russia / Orenburg Oblast     53°27′11″N   52°14′06″E
temp.,
°C
wind,
m/s
gust,
m/s
humid.,
%
clouds,
%
prec.,
mm/h
press.,
hPa
HPBL,
m
28 february, sun
sun2823:000wsw3699100 4.0 998250
02:00−3nw4697100 1.0 998166
05:00−11nw469598 1.2 999157
08:00−14nw469698 0.0 1000131
11:00−11nw589499 0.1 1002273
14:00−9nw5892100 0.1 1005421
17:00−10nw5891100 0.1 1007493
20:00−12nw499498 0.1 1010299
1 march, mon
mon123:00−14nw379595 0.2 1012222
02:00−15nw369584 0.1 1014142
05:00−18nw239688 0.1 101644
08:00−19nw239691 0.1 101737
11:00−17nw349365 0.1 1020192
14:00−14nw349250 0.0 1020325
17:00−14wnw459274 0.0 1021375
20:00−20wnw239864 0.0 102220
2 march, tue
tue223:00−21w239932 0.0 102220
02:00−22sw2310057 0.0 102022
05:00−21ssw3310062 0.0 101851
08:00−18s4998100 0.0 1015247
11:00−13ssw71294100 0.1 1012373
14:00−9ssw71394100 0.7 1009596
17:00−6ssw71394100 1.8 1006733
20:00−4ssw71395100 1.1 1003675
3 march, wed
wed323:00−4ssw61295100 1.8 1001503
02:00−3ssw41097100 0.7 999354
05:00−3wsw4897100 1.1 999269
08:00−4w499696 0.1 999282
11:00−2wnw589498 0.1 1000642
14:00−2nw5690100 0.2 1002564
17:00−2nw5792100 0.3 1003538
20:00−3nw3893100 0.1 1004467
4 march, thu
thu423:00−5nw369599 0.1 1006137
02:00−7wnw489693 0.1 1007195
05:00−8nw499593 0.2 1009262
08:00−12wnw469674 0.0 1011109
11:00−10wnw489570 0.1 1013274
14:00−7wsw579397 0.0 1013406
17:00−7sw6109398 0.1 1013486
20:00−9sw61494100 0.1 1011449